Time,TemperatureF,DewpointF,PressureIn,WindDirection,WindDirectionDegrees,WindSpeedMPH,WindSpeedGustMPH,Humidity,HourlyPrecipIn,Conditions,Clouds,dailyrainin,SolarRadiationWatts/m^2,SoftwareType,DateUTC
2013-01-08 00:05:00,25.1,22.0,29.99,SSW,196,0.0,0.0,88,0.00,,,0.00,0,weatherlink.com 1.10,2013-01-08 06:05:00,
2013-01-08 00:20:00,24.7,22.0,29.99,SSW,196,0.0,0.0,88,0.00,,,0.00,0,weatherlink.com 1.10,2013-01-08 06:20:00,
2013-01-08 00:35:00,24.5,21.0,29.99,SSW,204,0.0,0.0,87,0.00,,,0.00,0,weatherlink.com 1.10,2013-01-08 06:35:00,
2013-01-08 00:50:00,24.5,21.0,29.99,SSW,210,0.0,0.0,87,0.00,,,0.00,0,weatherlink.com 1.10,2013-01-08 06:50:00,
2013-01-08 01:05:00,23.8,20.0,29.99,SSW,210,0.0,0.0,86,0.00,,,0.00,0,weatherlink.com 1.10,2013-01-08 07:05:00,
2013-01-08 01:20:00,24.2,21.0,29.99,SSW,210,0.0,0.0,87,0.00,,,0.00,0,weatherlink.com 1.10,2013-01-08 07:20:00,
2013-01-08 01:35:00,23.2,20.0,29.99,SSW,210,0.0,0.0,87,0.00,,,0.00,0,weatherlink.com 1.10,2013-01-08 07:35:00,
2013-01-08 01:50:00,23.3,20.0,29.99,SSW,210,0.0,0.0,88,0.00,,,0.00,0,weatherlink.com 1.10,2013-01-08 07:50:00,
2013-01-08 02:05:00,23.4,21.0,29.99,SSW,210,0.0,0.0,89,0.00,,,0.00,0,weatherlink.com 1.10,2013-01-08 08:05:00,
2013-01-08 02:20:00,22.0,19.0,29.99,SSW,210,0.0,0.0,89,0.00,,,0.00,0,weatherlink.com 1.10,2013-01-08 08:20:00,
2013-01-08 02:38:00,20.2,18.0,29.99,SSW,210,0.0,0.0,89,0.00,,,0.00,0,weatherlink.com 1.10,2013-01-08 08:38:00,
2013-01-08 02:50:00,20.4,18.0,29.98,SSW,210,0.0,0.0,90,0.00,,,0.00,0,weatherlink.com 1.10,2013-01-08 08:50:00,
2013-01-08 03:05:00,20.3,18.0,29.98,SSW,210,0.0,0.0,90,0.00,,,0.00,0,weatherlink.com 1.10,2013-01-08 09:05:00,
2013-01-08 03:20:00,20.0,18.0,29.98,SSW,210,0.0,0.0,91,0.00,,,0.00,0,weatherlink.com 1.10,2013-01-08 09:20:00,
2013-01-08 03:35:00,19.6,17.0,29.97,SSW,210,0.0,0.0,91,0.00,,,0.00,0,weatherlink.com 1.10,2013-01-08 09:35:00,
2013-01-08 03:50:00,18.8,17.0,29.97,SSW,210,0.0,0.0,91,0.00,,,0.00,0,weatherlink.com 1.10,2013-01-08 09:50:00,
2013-01-08 04:05:00,18.6,16.0,29.97,SSW,210,0.0,0.0,91,0.00,,,0.00,0,weatherlink.com 1.10,2013-01-08 10:05:00,
2013-01-08 04:20:00,18.4,16.0,29.96,SSW,210,0.0,0.0,91,0.00,,,0.00,0,weatherlink.com 1.10,2013-01-08 10:20:00,
2013-01-08 04:35:00,18.1,16.0,29.96,SSW,210,0.0,0.0,91,0.00,,,0.00,0,weatherlink.com 1.10,2013-01-08 10:35:00,
2013-01-08 04:50:00,18.1,16.0,29.95,SSW,210,0.0,0.0,91,0.00,,,0.00,0,weatherlink.com 1.10,2013-01-08 10:50:00,
2013-01-08 05:05:00,18.1,16.0,29.96,SSW,210,0.0,0.0,91,0.00,,,0.00,0,weatherlink.com 1.10,2013-01-08 11:05:00,
2013-01-08 05:20:00,17.8,16.0,29.96,SSW,210,0.0,0.0,91,0.00,,,0.00,0,weatherlink.com 1.10,2013-01-08 11:20:00,
2013-01-08 05:35:00,17.1,15.0,29.95,SSW,210,0.0,0.0,91,0.00,,,0.00,0,weatherlink.com 1.10,2013-01-08 11:35:00,
2013-01-08 05:50:00,17.2,15.0,29.95,SSW,210,0.0,0.0,91,0.00,,,0.00,0,weatherlink.com 1.10,2013-01-08 11:50:00,
2013-01-08 06:05:00,17.8,16.0,29.95,SSW,210,0.0,0.0,91,0.00,,,0.00,0,weatherlink.com 1.10,2013-01-08 12:05:00,
2013-01-08 06:20:00,18.4,16.0,29.95,SSW,210,0.0,0.0,91,0.00,,,0.00,0,weatherlink.com 1.10,2013-01-08 12:20:00,
2013-01-08 06:35:00,18.4,16.0,29.96,SSW,210,0.0,0.0,91,0.00,,,0.00,0,weatherlink.com 1.10,2013-01-08 12:35:00,
2013-01-08 06:50:00,18.4,16.0,29.96,SSW,210,0.0,0.0,91,0.00,,,0.00,0,weatherlink.com 1.10,2013-01-08 12:50:00,
2013-01-08 07:05:00,18.6,16.0,29.96,SSW,210,0.0,0.0,91,0.00,,,0.00,0,weatherlink.com 1.10,2013-01-08 13:05:00,
2013-01-08 07:20:00,18.8,17.0,29.96,SSW,210,0.0,0.0,91,0.00,,,0.00,0,weatherlink.com 1.10,2013-01-08 13:20:00,
2013-01-08 07:35:00,19.2,17.0,29.96,SSW,210,0.0,0.0,91,0.00,,,0.00,0,weatherlink.com 1.10,2013-01-08 13:35:00,
2013-01-08 07:50:00,19.9,18.0,29.95,SSW,210,0.0,0.0,92,0.00,,,0.00,0,weatherlink.com 1.10,2013-01-08 13:50:00,
2013-01-08 08:05:00,19.6,17.0,29.95,SSW,210,0.0,0.0,91,0.00,,,0.00,12,weatherlink.com 1.10,2013-01-08 14:05:00,
2013-01-08 08:20:00,19.7,18.0,29.95,SSW,210,0.0,0.0,91,0.00,,,0.00,25,weatherlink.com 1.10,2013-01-08 14:20:00,
2013-01-08 08:35:00,20.4,18.0,29.95,SSW,210,0.0,0.0,91,0.00,,,0.00,40,weatherlink.com 1.10,2013-01-08 14:35:00,
2013-01-08 08:51:00,20.8,19.0,29.95,SSW,210,0.0,0.0,91,0.00,,,0.00,53,weatherlink.com 1.10,2013-01-08 14:51:00,
2013-01-08 09:06:00,20.0,18.0,29.94,SSW,209,0.0,0.0,91,0.00,,,0.00,67,weatherlink.com 1.10,2013-01-08 15:06:00,
2013-01-08 09:21:00,21.7,19.0,29.93,SSW,209,0.0,0.0,90,0.00,,,0.00,125,weatherlink.com 1.10,2013-01-08 15:21:00,
2013-01-08 09:36:00,22.5,20.0,29.93,SSW,209,0.0,0.0,89,0.00,,,0.00,100,weatherlink.com 1.10,2013-01-08 15:36:00,
2013-01-08 09:51:00,23.0,20.0,29.92,SSW,209,0.0,0.0,88,0.00,,,0.00,100,weatherlink.com 1.10,2013-01-08 15:51:00,
2013-01-08 10:06:00,23.8,20.0,29.91,SSW,207,0.0,0.0,86,0.00,,,0.00,135,weatherlink.com 1.10,2013-01-08 16:06:00,
2013-01-08 10:21:00,24.6,21.0,29.91,SSW,202,0.0,0.0,86,0.00,,,0.00,250,weatherlink.com 1.10,2013-01-08 16:21:00,
2013-01-08 10:36:00,25.4,22.0,29.90,South,186,0.0,0.0,85,0.00,,,0.00,209,weatherlink.com 1.10,2013-01-08 16:36:00,
2013-01-08 10:51:00,26.6,22.0,29.90,South,186,0.0,2.0,84,0.00,,,0.00,230,weatherlink.com 1.10,2013-01-08 16:51:00,
2013-01-08 11:06:00,27.0,23.0,29.89,South,186,0.0,0.0,83,0.00,,,0.00,134,weatherlink.com 1.10,2013-01-08 17:06:00,
2013-01-08 11:23:00,27.7,24.0,29.89,South,186,0.0,4.0,84,0.00,,,0.00,149,weatherlink.com 1.10,2013-01-08 17:23:00,
2013-01-08 11:36:00,29.0,25.0,29.88,South,186,0.0,0.0,83,0.00,,,0.00,244,weatherlink.com 1.10,2013-01-08 17:36:00,
2013-01-08 11:51:00,30.1,25.0,29.86,South,177,0.0,3.0,81,0.00,,,0.00,244,weatherlink.com 1.10,2013-01-08 17:51:00,
2013-01-08 12:06:00,31.6,26.0,29.85,South,176,0.0,4.0,80,0.00,,,0.00,469,weatherlink.com 1.10,2013-01-08 18:06:00,
2013-01-08 12:21:00,31.7,26.0,29.84,East,100,0.0,4.0,79,0.00,,,0.00,258,weatherlink.com 1.10,2013-01-08 18:21:00,
2013-01-08 12:36:00,32.2,27.0,29.84,South,171,0.0,7.0,80,0.00,,,0.00,329,weatherlink.com 1.10,2013-01-08 18:36:00,
2013-01-08 12:51:00,32.3,26.0,29.82,SSE,167,2.0,6.0,79,0.00,,,0.00,267,weatherlink.com 1.10,2013-01-08 18:51:00,
2013-01-08 13:06:00,32.6,27.0,29.82,South,171,0.0,7.0,79,0.00,,,0.00,260,weatherlink.com 1.10,2013-01-08 19:06:00,
2013-01-08 13:21:00,33.0,27.0,29.81,South,186,6.0,11.0,78,0.01,,,0.01,323,weatherlink.com 1.10,2013-01-08 19:21:00,
2013-01-08 13:36:00,32.4,27.0,29.80,SSE,165,0.0,7.0,79,0.01,,,0.01,186,weatherlink.com 1.10,2013-01-08 19:36:00,
2013-01-08 13:51:00,32.3,27.0,29.80,SSE,165,0.0,8.0,81,0.01,,,0.01,195,weatherlink.com 1.10,2013-01-08 19:51:00,
2013-01-08 14:06:00,32.5,27.0,29.79,South,188,0.0,8.0,81,0.01,,,0.01,188,weatherlink.com 1.10,2013-01-08 20:06:00,
2013-01-08 14:21:00,32.7,28.0,29.79,SSE,154,0.0,7.0,81,0.00,,,0.01,146,weatherlink.com 1.10,2013-01-08 20:21:00,
2013-01-08 14:52:00,33.0,28.0,29.78,South,191,5.0,10.0,82,0.00,,,0.01,127,weatherlink.com 1.10,2013-01-08 20:52:00,
2013-01-08 15:07:00,33.0,28.0,29.79,SSW,203,5.0,9.0,82,0.00,,,0.01,120,weatherlink.com 1.10,2013-01-08 21:07:00,
2013-01-08 15:22:00,33.2,29.0,29.79,South,178,3.0,12.0,83,0.00,,,0.01,104,weatherlink.com 1.10,2013-01-08 21:22:00,
2013-01-08 15:37:00,33.4,29.0,29.79,South,183,4.0,11.0,83,0.00,,,0.01,69,weatherlink.com 1.10,2013-01-08 21:37:00,
2013-01-08 15:52:00,33.4,29.0,29.78,South,172,8.0,11.0,83,0.00,,,0.01,65,weatherlink.com 1.10,2013-01-08 21:52:00,
2013-01-08 16:07:00,33.4,29.0,29.79,SSE,168,3.0,9.0,84,0.00,,,0.01,40,weatherlink.com 1.10,2013-01-08 22:07:00,
2013-01-08 16:22:00,33.3,29.0,29.79,SSW,209,6.0,11.0,84,0.00,,,0.01,23,weatherlink.com 1.10,2013-01-08 22:22:00,
2013-01-08 16:37:00,33.2,29.0,29.78,South,188,8.0,9.0,85,0.00,,,0.01,11,weatherlink.com 1.10,2013-01-08 22:37:00,
2013-01-08 16:52:00,33.4,29.0,29.78,SSW,199,6.0,11.0,85,0.00,,,0.01,5,weatherlink.com 1.10,2013-01-08 22:52:00,
2013-01-08 17:07:00,33.6,29.0,29.79,South,188,7.0,17.0,84,0.00,,,0.01,0,weatherlink.com 1.10,2013-01-08 23:07:00,
2013-01-08 17:22:00,33.6,29.0,29.79,SW,221,10.0,14.0,84,0.00,,,0.01,0,weatherlink.com 1.10,2013-01-08 23:22:00,
2013-01-08 17:37:00,33.5,29.0,29.79,SSW,208,14.0,15.0,84,0.00,,,0.01,0,weatherlink.com 1.10,2013-01-08 23:37:00,
2013-01-08 17:52:00,33.2,29.0,29.79,SSW,210,9.0,13.0,84,0.00,,,0.01,0,weatherlink.com 1.10,2013-01-08 23:52:00,
2013-01-08 18:07:00,32.7,29.0,29.80,SW,218,7.0,12.0,85,0.00,,,0.01,0,weatherlink.com 1.10,2013-01-09 00:07:00,
2013-01-08 18:22:00,32.3,28.0,29.80,SSW,210,6.0,13.0,85,0.00,,,0.01,0,weatherlink.com 1.10,2013-01-09 00:22:00,
2013-01-08 18:37:00,31.9,28.0,29.80,SSW,213,1.0,12.0,85,0.00,,,0.01,0,weatherlink.com 1.10,2013-01-09 00:37:00,
2013-01-08 18:52:00,31.3,28.0,29.81,SSE,168,3.0,10.0,86,0.00,,,0.01,0,weatherlink.com 1.10,2013-01-09 00:52:00,
2013-01-08 19:07:00,31.2,28.0,29.82,SW,216,0.0,15.0,87,0.00,,,0.01,0,weatherlink.com 1.10,2013-01-09 01:07:00,
2013-01-08 19:22:00,30.8,27.0,29.83,SSW,198,4.0,13.0,86,0.00,,,0.01,0,weatherlink.com 1.10,2013-01-09 01:22:00,
2013-01-08 19:52:00,30.2,27.0,29.84,SW,233,1.0,16.0,86,0.00,,,0.01,0,weatherlink.com 1.10,2013-01-09 01:52:00,
2013-01-08 20:07:00,30.0,26.0,29.85,SW,216,2.0,12.0,85,0.00,,,0.01,0,weatherlink.com 1.10,2013-01-09 02:07:00,
2013-01-08 20:22:00,30.0,26.0,29.85,WSW,247,10.0,12.0,85,0.00,,,0.01,0,weatherlink.com 1.10,2013-01-09 02:22:00,
2013-01-08 20:37:00,30.2,26.0,29.85,SW,223,3.0,12.0,85,0.00,,,0.01,0,weatherlink.com 1.10,2013-01-09 02:37:00,
2013-01-08 20:52:00,30.8,27.0,29.86,WSW,242,2.0,13.0,85,0.00,,,0.01,0,weatherlink.com 1.10,2013-01-09 02:52:00,
2013-01-08 21:22:00,30.7,26.0,29.88,SW,222,1.0,10.0,84,0.00,,,0.01,0,weatherlink.com 1.10,2013-01-09 03:22:00,
2013-01-08 21:37:00,30.1,26.0,29.88,WSW,249,5.0,10.0,84,0.00,,,0.01,0,weatherlink.com 1.10,2013-01-09 03:37:00,
2013-01-08 21:51:00,29.6,25.0,29.89,WSW,238,1.0,9.0,84,0.00,,,0.01,0,weatherlink.com 1.10,2013-01-09 03:51:00,
2013-01-08 22:06:00,29.3,25.0,29.90,WSW,238,0.0,9.0,85,0.00,,,0.01,0,weatherlink.com 1.10,2013-01-09 04:06:00,
2013-01-08 22:21:00,29.2,25.0,29.91,WSW,252,1.0,8.0,85,0.00,,,0.01,0,weatherlink.com 1.10,2013-01-09 04:21:00,
2013-01-08 22:36:00,28.9,25.0,29.92,SW,234,0.0,8.0,85,0.00,,,0.01,0,weatherlink.com 1.10,2013-01-09 04:36:00,
2013-01-08 22:51:00,28.9,25.0,29.93,WSW,240,0.0,8.0,85,0.00,,,0.01,0,weatherlink.com 1.10,2013-01-09 04:51:00,
2013-01-08 23:06:00,29.0,25.0,29.93,WSW,252,1.0,8.0,86,0.00,,,0.01,0,weatherlink.com 1.10,2013-01-09 05:06:00,
2013-01-08 23:21:00,29.3,26.0,29.94,WSW,247,2.0,9.0,86,0.00,,,0.01,0,weatherlink.com 1.10,2013-01-09 05:21:00,
2013-01-08 23:36:00,29.7,26.0,29.95,SW,223,0.0,7.0,86,0.00,,,0.01,0,weatherlink.com 1.10,2013-01-09 05:36:00,
2013-01-08 23:51:00,29.9,26.0,29.95,West,261,0.0,8.0,85,0.00,,,0.01,0,weatherlink.com 1.10,2013-01-09 05:51:00,